{"data":{"norad_id":52353,"epoch":"2026-05-24T16:04:46.027488Z","epoch_age_seconds":100598,"freshness":"FRESH","line1":"1 52353U 22045Y   26144.66997717  .00000782  00000+0  67196-4 0  9999","line2":"2 52353  53.2122 218.0336 0001664  79.3809 280.7371 15.08846316227259","mean_motion":15.08846316,"eccentricity":0.0001664,"inclination_deg":53.2122,"raan_deg":218.0336,"arg_perigee_deg":79.3809,"mean_anomaly_deg":280.7371,"bstar":6.7196e-5,"rev_number":22725,"period_min":95.437155178102,"perigee_km":538.5729514619,"apogee_km":540.8752156305,"semimajor_km":6917.8610835462,"source":"CELESTRAK","updated_at":"2026-05-25T13:38:17.117088Z"}}